When you browse on this site, cookies collect data to enhance your experience and personalize the content and advertising you see.
Visit our Privacy Policy to learn more. By continuing to use the site, you agree to this use of cookies and data.
  • In Czech Republic
  • List of Countries
  • For 7 days
  • Water Temperature
  • Weather Map
  • Weather Widgets
  • user-avatar
    Login

    Hourly Weather Yuzhnyy

    Today, 4 April, Saturday

    Time Temperature Precipitation Wind Pressure Humidity
    00:00 +5°C° 0 mm 5 mps 735 mmHg 62%
    01:00 +4°C° 0 mm 4 mps 735 mmHg 69%
    02:00 +3°C° 0 mm 4 mps 735 mmHg 75%
    03:00 +3°C° 0 mm 3 mps 736 mmHg 81%
    04:00 +2°C° 0 mm 3 mps 736 mmHg 84%
    05:00 +2°C° 0 mm 3 mps 736 mmHg 87%
    06:00 +2°C° 0 mm 3 mps 737 mmHg 90%
    07:00 +3°C° 0 mm 4 mps 737 mmHg 83%
    08:00 +4°C° 0 mm 4 mps 738 mmHg 76%
    09:00 +5°C° 0 mm 5 mps 738 mmHg 68%
    10:00 +5°C° 0 mm 5 mps 739 mmHg 61%
    11:00 +5°C° 0 mm 6 mps 739 mmHg 54%
    12:00 +7°C° 0 mm 6 mps 739 mmHg 47%
    13:00 +6°C° 0 mm 7 mps 740 mmHg 45%
    14:00 +6°C° 0 mm 7 mps 740 mmHg 42%
    15:00 +6°C° 0 mm 7 mps 740 mmHg 40%
    16:00 +7°C° 0 mm 6 mps 741 mmHg 41%
    17:00 +5°C° 0 mm 6 mps 741 mmHg 42%
    18:00 +5°C° 0 mm 6 mps 741 mmHg 44%
    19:00 +5°C° 0.1 mm 5 mps 742 mmHg 50%
    20:00 +4°C° 0.1 mm 4 mps 742 mmHg 56%
    21:00 +3°C° 0.1 mm 3 mps 743 mmHg 63%
    22:00 +2°C° 0 mm 3 mps 743 mmHg 65%
    23:00 +2°C° 0 mm 3 mps 744 mmHg 68%

    Tomorrow, 5 April, Sunday

    Time Temperature Precipitation Wind Pressure Humidity
    00:00 +1°C° 0 mm 3 mps 744 mmHg 71%
    01:00 +1°C° 0 mm 3 mps 744 mmHg 72%
    02:00 0°C° 0 mm 3 mps 745 mmHg 72%
    03:00 0°C° 0 mm 3 mps 745 mmHg 73%
    04:00 -1°C° 0 mm 3 mps 745 mmHg 73%
    05:00 -1°C° 0 mm 2 mps 745 mmHg 72%
    06:00 -1°C° 0 mm 2 mps 745 mmHg 72%
    07:00 0°C° 0 mm 3 mps 745 mmHg 65%
    08:00 +2°C° 0 mm 3 mps 745 mmHg 59%
    09:00 +3°C° 0 mm 4 mps 745 mmHg 53%
    10:00 +2°C° 0.1 mm 5 mps 745 mmHg 54%
    11:00 +3°C° 0.1 mm 6 mps 745 mmHg 56%
    12:00 +3°C° 0.1 mm 7 mps 745 mmHg 57%
    13:00 +3°C° 0.3 mm 7 mps 745 mmHg 54%
    14:00 +3°C° 0.3 mm 7 mps 745 mmHg 50%
    15:00 +2°C° 0.3 mm 8 mps 745 mmHg 47%
    16:00 +2°C° 0.2 mm 8 mps 746 mmHg 47%
    17:00 +1°C° 0.2 mm 8 mps 746 mmHg 46%
    18:00 +1°C° 0.2 mm 8 mps 746 mmHg 46%
    19:00 0°C° 0 mm 7 mps 747 mmHg 49%
    20:00 -1°C° 0 mm 6 mps 747 mmHg 51%
    21:00 -1°C° 0 mm 5 mps 748 mmHg 54%
    22:00 -1°C° 0 mm 5 mps 748 mmHg 56%
    23:00 -2°C° 0 mm 5 mps 748 mmHg 58%

    Day after tomorrow, 6 April, Monday

    Time Temperature Precipitation Wind Pressure Humidity
    00:00 -2°C° 0 mm 5 mps 749 mmHg 60%
    01:00 -2°C° 0 mm 5 mps 749 mmHg 60%
    02:00 -2°C° 0 mm 5 mps 749 mmHg 59%
    03:00 -4°C° 0 mm 5 mps 750 mmHg 58%
    04:00 -4°C° 0 mm 5 mps 750 mmHg 57%
    05:00 -4°C° 0 mm 5 mps 750 mmHg 57%
    06:00 -4°C° 0 mm 5 mps 751 mmHg 56%
    07:00 -4°C° 0 mm 5 mps 751 mmHg 50%
    08:00 -3°C° 0 mm 6 mps 751 mmHg 43%
    09:00 -2°C° 0 mm 6 mps 752 mmHg 37%
    10:00 -1°C° 0 mm 6 mps 752 mmHg 37%
    11:00 +1°C° 0 mm 6 mps 752 mmHg 36%
    12:00 +1°C° 0 mm 6 mps 752 mmHg 36%
    13:00 +2°C° 0 mm 6 mps 752 mmHg 37%
    14:00 +3°C° 0 mm 6 mps 752 mmHg 38%
    15:00 +3°C° 0 mm 6 mps 752 mmHg 39%
    16:00 +3°C° 0 mm 6 mps 752 mmHg 42%
    17:00 +3°C° 0 mm 5 mps 752 mmHg 46%
    18:00 +4°C° 0 mm 4 mps 752 mmHg 49%
    19:00 +3°C° 0 mm 4 mps 752 mmHg 55%
    20:00 +2°C° 0 mm 3 mps 752 mmHg 61%
    21:00 +3°C° 0 mm 2 mps 752 mmHg 67%
    22:00 +2°C° 0 mm 2 mps 752 mmHg 69%
    23:00 +2°C° 0 mm 2 mps 752 mmHg 72%

    7 April, Tuesday

    Time Temperature Precipitation Wind Pressure Humidity
    00:00 +2°C° 0 mm 2 mps 753 mmHg 74%
    01:00 +1°C° 0 mm 2 mps 753 mmHg 76%
    02:00 +1°C° 0 mm 2 mps 753 mmHg 79%
    03:00 -1°C° 0 mm 2 mps 753 mmHg 81%
    04:00 +1°C° 0 mm 1 mps 754 mmHg 80%
    05:00 +1°C° 0 mm 1 mps 754 mmHg 78%
    06:00 -1°C° 0 mm 0 mps 754 mmHg 77%
    07:00 0°C° 0 mm 0 mps 754 mmHg 71%
    08:00 +3°C° 0 mm 1 mps 754 mmHg 65%
    09:00 +4°C° 0 mm 1 mps 755 mmHg 59%
    10:00 +5°C° 0 mm 1 mps 754 mmHg 58%
    11:00 +5°C° 0 mm 2 mps 754 mmHg 58%
    12:00 +6°C° 0 mm 2 mps 754 mmHg 57%
    13:00 +5°C° 0 mm 3 mps 754 mmHg 59%
    14:00 +7°C° 0 mm 3 mps 753 mmHg 60%
    15:00 +8°C° 0 mm 3 mps 753 mmHg 62%
    16:00 +8°C° 0 mm 3 mps 753 mmHg 63%
    17:00 +8°C° 0 mm 3 mps 752 mmHg 64%
    18:00 +8°C° 0 mm 3 mps 752 mmHg 66%
    19:00 +8°C° 0 mm 3 mps 751 mmHg 70%
    20:00 +6°C° 0 mm 4 mps 751 mmHg 74%
    21:00 +5°C° 0 mm 4 mps 750 mmHg 78%
    22:00 +5°C° 0 mm 4 mps 750 mmHg 78%
    23:00 +5°C° 0 mm 5 mps 750 mmHg 78%

    8 April, Wednesday

    Time Temperature Precipitation Wind Pressure Humidity
    00:00 +5°C° 0 mm 5 mps 749 mmHg 78%
    01:00 +5°C° 0 mm 5 mps 749 mmHg 78%
    02:00 +3°C° 0 mm 5 mps 748 mmHg 79%
    03:00 +3°C° 0 mm 5 mps 747 mmHg 79%
    04:00 +3°C° 0 mm 5 mps 747 mmHg 78%
    05:00 +2°C° 0 mm 5 mps 746 mmHg 77%
    06:00 +2°C° 0 mm 5 mps 745 mmHg 77%
    07:00 +3°C° 0 mm 6 mps 745 mmHg 73%
    08:00 +5°C° 0 mm 6 mps 744 mmHg 70%
    09:00 +7°C° 0 mm 6 mps 744 mmHg 66%
    10:00 +8°C° 0 mm 7 mps 744 mmHg 64%
    11:00 +9°C° 0 mm 7 mps 743 mmHg 62%
    12:00 +11°C° 0 mm 7 mps 743 mmHg 60%
    13:00 +10°C° 0 mm 7 mps 743 mmHg 61%
    14:00 +10°C° 0 mm 7 mps 743 mmHg 62%
    15:00 +10°C° 0 mm 7 mps 743 mmHg 63%
    16:00 +9°C° 0 mm 6 mps 743 mmHg 62%
    17:00 +9°C° 0 mm 6 mps 743 mmHg 62%
    18:00 +9°C° 0 mm 5 mps 743 mmHg 61%
    19:00 +8°C° 0 mm 5 mps 743 mmHg 69%
    20:00 +7°C° 0 mm 4 mps 743 mmHg 76%
    21:00 +6°C° 0 mm 4 mps 743 mmHg 84%
    22:00 +6°C° 0 mm 4 mps 743 mmHg 86%
    23:00 +5°C° 0 mm 3 mps 743 mmHg 88%

    9 April, Thursday

    Time Temperature Precipitation Wind Pressure Humidity
    00:00 +5°C° 0 mm 3 mps 743 mmHg 90%
    01:00 +4°C° 0 mm 3 mps 743 mmHg 91%
    02:00 +4°C° 0 mm 3 mps 743 mmHg 91%
    03:00 +3°C° 0 mm 3 mps 743 mmHg 92%
    04:00 +3°C° 0 mm 3 mps 743 mmHg 91%
    05:00 +3°C° 0 mm 3 mps 743 mmHg 91%
    06:00 +2°C° 0 mm 3 mps 743 mmHg 91%
    07:00 +4°C° 0 mm 3 mps 742 mmHg 85%
    08:00 +5°C° 0 mm 3 mps 742 mmHg 80%
    09:00 +6°C° 0 mm 4 mps 742 mmHg 74%
    10:00 +8°C° 0 mm 4 mps 741 mmHg 67%
    11:00 +9°C° 0 mm 5 mps 741 mmHg 61%
    12:00 +11°C° 0 mm 6 mps 740 mmHg 54%
    13:00 +11°C° 0 mm 6 mps 740 mmHg 52%
    14:00 +13°C° 0 mm 6 mps 739 mmHg 50%
    15:00 +14°C° 0 mm 7 mps 738 mmHg 47%
    16:00 +14°C° 0 mm 6 mps 737 mmHg 49%
    17:00 +13°C° 0 mm 6 mps 737 mmHg 51%
    18:00 +13°C° 0 mm 6 mps 736 mmHg 53%
    19:00 +11°C° 0 mm 6 mps 736 mmHg 56%
    20:00 +10°C° 0 mm 6 mps 736 mmHg 58%
    21:00 +9°C° 0 mm 5 mps 735 mmHg 60%
    22:00 +8°C° 0 mm 5 mps 735 mmHg 65%
    23:00 +7°C° 0 mm 5 mps 735 mmHg 70%
    Show more